Regional Weather Roundup
Issued by NWS Green Bay, WI

Home | Current Version | Previous Version | Text Only | Print | Product List | Glossary On
Versions: 1 2 3 4 5 6 7 8 9 10 11 12 13 14 15 16 17 18 19 20 21 22 23 24 25 26 27 28 29 30 31 32 33 34 35 36 37 38 39 40 41 42 43 44 45 46 47 48 49 50
000
ASUS43 KGRB 240500
RWRGRB

NORTH-CENTRAL AND NORTHEAST WISCONSIN REGIONAL WEATHER ROUNDUP
NATIONAL WEATHER SERVICE GREEN BAY WI
1200 AM CDT WED AUG 24 2016

WIZ005-009-010>012-018-019-240600-
NORTH CENTRAL WISCONSIN

CITY           SKY/WX    TMP DP  RH WIND       PRES   REMARKS
IRONWOOD       CLOUDY    70  63  78 S13G18    29.92F
MANITOWISH WTR NOT AVBL
ARBOR VITAE    NOT AVBL
EAGLE RIVER    NOT AVBL
LAND O LAKES   NOT AVBL
RHINELANDER    CLOUDY    68  63  84 S9        29.99F
PHILLIPS       CLOUDY    68  63  82 SE9       29.95F
ANTIGO         NOT AVBL
TOMAHAWK       NOT AVBL
MERRILL        CLOUDY    67  63  87 SE6       29.98F
$$

WIZ013-073-240600-
NORTHEAST WISCONSIN

CITY           SKY/WX    TMP DP  RH WIND       PRES   REMARKS
IRON MOUNTAIN  CLOUDY    64  60  87 SE5       29.99F
MARINETTE      PTCLDY   N/A N/A N/A S3        30.02F
$$

WIZ017-030-035>037-045-240600-
CENTRAL WISCONSIN

CITY           SKY/WX    TMP DP  RH WIND       PRES   REMARKS
MEDFORD        NOT AVBL
WAUSAU         LGT RAIN  68  61  78 SE9       29.95F
MOSINEE        NOT AVBL
MARSHFIELD     LGT RAIN  68  64  87 S6        29.97F
WISC RAPIDS    LGT RAIN  67  66  97 SE6       29.99F
STEVENS POINT  NOT AVBL
WAUPACA        NOT AVBL
SHAWANO        NOT AVBL
CLINTONVILLE   CLOUDY    68  61  77 S3        30.01F
WAUTOMA        CLOUDY    70  64  81 SE6       29.99F
$$

WIZ038-039-048-051-240600-
FOX VALLEY

CITY           SKY/WX    TMP DP  RH WIND       PRES   REMARKS
NWS GREEN BAY  PTCLDY    67  64  90 S6        30.02F
APPLETON       NOT AVBL
OSHKOSH        MOCLDY    69  61  75 S9        30.01F
FOND DU LAC    CLOUDY    69  62  78 S9        30.02F
$$

WIZ022-050-052-240600-
EAST CENTRAL WISCONSIN

CITY           SKY/WX    TMP DP  RH WIND       PRES   REMARKS
EPHRAIM        NOT AVBL
WASHINGTON ISL NOT AVBL
STURGEON BAY   CLOUDY    67  63  87 S7        30.03F
MANITOWOC      NOT AVBL
SHEBOYGAN      PTCLDY    66  61  84 S8        30.04F
$$

LMZ563-521-522-541>543-240600-
LAKESHORE

STATION/POSITION TIME  TEMP    WIND        PRES    VSBY  WAVE
                       AIR SEA DIR/SP/G                  HT/PER
                 (UTC) (F)     (DEG/KT/KT) (MB)    (MI)  (FT/S)
SHEBOYGAN LKSHOR 0400   67     180/ 15/ 16 1017.0F
KEWAUNEE LKSHORE 0400   65     180/  7/  9 1017.0F
N MID LAKE BUOY  0350   72 71  190/ 16/ 19 1016.5F         6/ 7
S GREEN BAY BUOY 0400   72 73  180/ 16/ 17 1016.2F
CHAMBERS ISLAND  0400   71     170/  7/ 14 1016.6F
MENOMINEE LKSHOR 0400   70     180/  8/ 12 1015.9F
$$



USA.gov is the U.S. government's official web portal to all federal, state and local government web resources and services.